Location: Aalen
(48.8330°N, 10.1000°E)
Time: 07:13:06
(UTC+02:00)

CAS-6 - Visible Passes

Search period start: 19 June 2024 00:00
Search period end: 29 June 2024 00:00
Orbit: 608 x 627 km, 97.8° (Epoch: 18 June)

Date Brightness Start Highest point End Pass type
(mag) Time Alt. Az. Time Alt. Az. Time Alt. Az.
19 Jun ? 00:28:05 13° SW 00:30:44 20° W 00:33:59 10° NW visible
19 Jun ? 23:07:37 17° SSE 23:10:50 68° ENE 23:15:09 10° N visible
20 Jun ? 00:45:01 10° WSW 00:47:23 14° W 00:49:45 10° NW visible
20 Jun ? 23:24:15 19° SSE 23:27:17 84° WSW 23:31:39 10° NNW visible
21 Jun ? 22:05:06 10° ESE 22:08:06 19° ENE 22:11:07 10° NNE visible
21 Jun ? 23:40:53 20° S 23:43:46 57° W 23:48:05 10° NNW visible
22 Jun ? 22:20:52 10° ESE 22:24:24 25° ENE 22:27:58 10° N visible
22 Jun ? 23:57:31 18° SSW 00:00:18 39° W 00:04:24 10° NNW visible
23 Jun ? 22:37:03 11° SE 22:40:44 35° ENE 22:44:42 10° N visible
24 Jun ? 00:14:09 15° SW 00:16:51 27° W 00:20:35 10° NW visible
24 Jun ? 22:53:41 15° SE 22:57:07 50° ENE 23:01:20 10° N visible
25 Jun ? 00:30:47 12° SW 00:33:28 19° W 00:36:37 10° NW visible
25 Jun ? 23:10:19 18° SSE 23:13:31 72° ENE 23:17:53 10° N visible
26 Jun ? 00:47:55 10° WSW 00:50:06 14° W 00:52:18 10° WNW visible
26 Jun ? 23:26:56 20° S 23:29:58 79° WSW 23:34:21 10° NNW visible
27 Jun ? 22:07:36 10° ESE 22:10:44 20° ENE 22:13:53 10° NNE visible
27 Jun ? 23:43:34 20° S 23:46:26 53° W 23:50:44 10° NNW visible
28 Jun ? 22:23:24 10° ESE 22:27:02 27° ENE 22:30:42 10° N visible
